Regional Weather Roundup
Issued by NWS

Home | Current Version | Previous Version | Text Only | Print | Product List | Glossary On
Versions: 1 2 3 4 5 6 7 8 9 10 11 12 13 14 15 16 17 18 19 20 21 22 23 24 25 26 27 28 29 30 31 32 33 34 35 36 37 38 39 40 41 42 43 44 45 46 47 48 49 50
000
ASUS44 KFWD 260615
RWRTX
NORTH TEXAS HOURLY WEATHER ROUNDUP
NATIONAL WEATHER SERVICE FORT WORTH TX
100 AM CDT THU APR 26 2018

NOTE: "FAIR" INDICATES FEW OR NO CLOUDS BELOW 12,000 FEET WITH NO
SIGNIFICANT WEATHER AND/OR OBSTRUCTIONS TO VISIBILITY.

TXZ118-119-260700-
DALLAS/FORT WORTH METROPLEX

CITY           SKY/WX    TMP DP  RH WIND       PRES   REMARKS
DFW AIRPORT    FAIR      50  47  89 W7        30.07F
6HR MIN TEMP:  50; 6HR MAX TEMP:  54;

DALLAS LOVE    FAIR      51  48  89 W5        30.08F
6HR MIN TEMP:  50; 6HR MAX TEMP:  55;

FTW MEACHAM    FAIR      50  47  89 W6        30.09F
6HR MIN TEMP:  50; 6HR MAX TEMP:  55;

DAL-EXECUTIVE  FAIR      49  46  90 W8        30.08F
6HR MIN TEMP:  48; 6HR MAX TEMP:  54; 6HR PCP:  0.01;

FTW-ALLIANCE   FAIR      47  46  97 W6        30.08F
6HR MIN TEMP:  47; 6HR MAX TEMP:  54;

FTW-NAS-JRB    FAIR      49  46  90 W5        30.10F
6HR MIN TEMP:  49; 6HR MAX TEMP:  55;

FTW-SPINKS     FAIR      47  46  95 W6        30.10F
6HR MIN TEMP:  47; 6HR MAX TEMP:  53;

ARLINGTON      FAIR      48  48 100 W3        30.09F
6HR MIN TEMP:  48; 6HR MAX TEMP:  53;

GRAND PRAIRIE  FAIR      50  49  93 CALM      30.10F
6HR MIN TEMP:  50; 6HR MAX TEMP:  55;

ADDISON        FAIR      48  46  93 CALM      30.09F
6HR MIN TEMP:  48; 6HR MAX TEMP:  54;

MESQUITE       FAIR      48  47  95 W6        30.08F
6HR MIN TEMP:  48; 6HR MAX TEMP:  53;

LANCASTER      FAIR      46  45  96 W3        30.09F
6HR MIN TEMP:  46; 6HR MAX TEMP:  53;

$$

TXZ091>094-102>105-117-120-121-131>134-260700-
NORTH CENTRAL TEXAS

CITY           SKY/WX    TMP DP  RH WIND       PRES   REMARKS
SHRMAN/DENISON FAIR      44  41  89 W5        30.08S
6HR MIN TEMP:  44; 6HR MAX TEMP:  54;

GAINESVILLE    FAIR      47  41  81 NW9       30.10S
6HR MIN TEMP:  46; 6HR MAX TEMP:  55;

BOWIE          FAIR      43  42  96 W3        30.09F
6HR MIN TEMP:  42; 6HR MAX TEMP:  56;

BRIDGEPORT     FAIR      44  44 100 CALM      30.12F
6HR MIN TEMP:  44; 6HR MAX TEMP:  54;

DECATUR        FAIR      47  44  90 CALM      30.09F
6HR MIN TEMP:  47; 6HR MAX TEMP:  54;

DENTON         FAIR      44  44 100 W6        30.08F
6HR MIN TEMP:  44; 6HR MAX TEMP:  56;

MCKINNEY       FAIR      49  45  86 NW6       30.07F
6HR MIN TEMP:  49; 6HR MAX TEMP:  54;

BONHAM         FAIR      45  43  93 W6        30.06F
6HR MIN TEMP:  44; 6HR MAX TEMP:  52;

GREENVILLE     FAIR      50  48  93 NW3       30.06F
ROCKWALL       FAIR      50  47  90 MISG      30.08F
6HR MIN TEMP:  50; 6HR MAX TEMP:  53;

TERRELL        FAIR      47  45  93 W5        30.08F
6HR MIN TEMP:  47; 6HR MAX TEMP:  54; 6HR PCP: TRACE;

WAXAHACHIE     FAIR      47  47 100 W3        30.10F
6HR MIN TEMP:  47; 6HR MAX TEMP:  52; 6HR PCP:  0.01;

CLEBURNE       FAIR      46  46 100 NW7       30.11F
GRANBURY       FAIR      43  41  94 CALM      30.12F
6HR MIN TEMP:  43; 6HR MAX TEMP:  53;

$$

TXZ083>090-098>101-113>116-127>130-139>142-154-155-260700-
WESTERN NORTH TEXAS

CITY           SKY/WX    TMP DP  RH WIND       PRES   REMARKS
WICHITA FALLS  FAIR      45  40  82 SW5       30.10F
6HR MIN TEMP:  45; 6HR MAX TEMP:  59;

WF-KICKAPOO    FAIR      49  43  78 SW3       30.13S
6HR MIN TEMP:  48; 6HR MAX TEMP:  60;

VERNON         FAIR      46  42  89 SW6       30.11F
6HR MIN TEMP:  46; 6HR MAX TEMP:  66;

ABILENE        FAIR      44  44 100 SW6       30.12F
6HR MIN TEMP:  42; 6HR MAX TEMP:  56;

ABILENE-DYESS  FAIR      43  38  84 S5        30.12F
6HR MIN TEMP:  43; 6HR MAX TEMP:  57;

GRAHAM           N/A     40  50 100 CALM      30.11F
6HR MIN TEMP:  40; 6HR MAX TEMP:  58;

BRECKENRIDGE   FAIR      46  46  98 SW3       30.12S
6HR MIN TEMP:  46; 6HR MAX TEMP:  57;

CISCO          FAIR      43  43 100 W7        30.12F WCI  39
EASTLAND       FOG       36  36  99 CALM      30.11F VSB 1/2
6HR MIN TEMP:  36; 6HR MAX TEMP:  51;

RANGER         FAIR      45  45  99 W7        30.11F
6HR MIN TEMP:  45; 6HR MAX TEMP:  50;

MINERAL WELLS  FOG       44  43  96 W6        30.10F VSB 1/4
6HR MIN TEMP:  44; 6HR MAX TEMP:  53;

STEPHENVILLE   FAIR      45  43  92 CALM      30.13F
6HR MIN TEMP:  45; 6HR MAX TEMP:  51;

COMANCHE       FAIR      45  45 100 W7        30.12F
6HR MIN TEMP:  45; 6HR MAX TEMP:  49; 6HR PCP:  0.01;

BROWNWOOD      FAIR      39  37  93 CALM      30.13F
COLEMAN        FAIR      45  44  95 W3        30.13F
6HR MIN TEMP:  45; 6HR MAX TEMP:  51;

BRADY          FAIR      45  43  93 NW6       30.13F
$$

TXZ143>147-156>162-174-175-260700-
CENTRAL TEXAS

CITY           SKY/WX    TMP DP  RH WIND       PRES   REMARKS
WACO           FAIR      49  46  90 NW8       30.09F
6HR MIN TEMP:  49; 6HR MAX TEMP:  59; 6HR PCP: TRACE;

WACO-MCGREGOR  FAIR      48  46  93 NW5       30.09F
6HR MIN TEMP:  48; 6HR MAX TEMP:  58;

HILLSBORO      FAIR      47  47 100 NW3       30.09F
6HR MIN TEMP:  45; 6HR MAX TEMP:  53; 6HR PCP:  0.01;

CORSICANA      FAIR      48  46  93 NW7       30.09F
6HR MIN TEMP:  47; 6HR MAX TEMP:  57; 6HR PCP:  0.05;

MEXIA          FAIR      48  46  93 NW3       30.08F
6HR MIN TEMP:  48; 6HR MAX TEMP:  61;

HEARNE         FAIR      53  49  87 NW7       30.10S
6HR MIN TEMP:  53; 6HR MAX TEMP:  65;

CAMERON        FAIR      53  48  84 N6        30.10S
6HR MIN TEMP:  53; 6HR MAX TEMP:  65;

TEMPLE         FAIR      50  47  89 NW6       30.10F
6HR MIN TEMP:  49; 6HR MAX TEMP:  62;

KILLEEN        CLEAR     50  45  81 SW7       30.10F
KILLEEN-SKYLRK FAIR      51  47  86 NW5       30.10F
6HR MIN TEMP:  51; 6HR MAX TEMP:  61;

FORT HOOD      FAIR      49  47  94 NW8       30.06F
6HR MIN TEMP:  49; 6HR MAX TEMP:  59;

GATESVILLE     FAIR      48  46  93 CALM      30.11F
HAMILTON       FAIR      45  45 100 NW5       30.11F
6HR MIN TEMP:  45; 6HR MAX TEMP:  53;

LAMPASAS       FAIR      47  44  88 CALM      30.09F
6HR MIN TEMP:  47; 6HR MAX TEMP:  58;

$$

TXZ095>097-106>112-122>126-135>138-148>153-164>167-260700-
EAST TEXAS

CITY           SKY/WX    TMP DP  RH WIND       PRES   REMARKS
PARIS          FAIR      48  45  89 NW9       30.04F
6HR MIN TEMP:  48; 6HR MAX TEMP:  53; 6HR PCP: TRACE;

SULPHUR SPRNGS FAIR      50  47  90 W8        30.07F
6HR MIN TEMP:  50; 6HR MAX TEMP:  54;

MOUNT PLEASANT FAIR      51  49  93 W8        30.05F
6HR MIN TEMP:  51; 6HR MAX TEMP:  56; 6HR PCP:  0.02;

GILMER         MOCLDY    50  49  95 W5        30.04F
6HR MIN TEMP:  50; 6HR MAX TEMP:  56; 6HR PCP:  0.08;

MINEOLA        FAIR      50  48  93 NW3       30.05F
TYLER          FAIR      50  49  96 NW6       30.05F
6HR MIN TEMP:  50; 6HR MAX TEMP:  58; 6HR PCP:  0.05;

LONGVIEW       FAIR      51  51 100 W7        30.03F
6HR MIN TEMP:  51; 6HR MAX TEMP:  62; 6HR PCP:  0.08;

MARSHALL       FAIR      50  47  90 NW5       30.04S
6HR MIN TEMP:  50; 6HR MAX TEMP:  63; 6HR PCP:  0.03;

ATHENS         FAIR      50  50 100 NW3       30.06F
PALESTINE      FAIR      50  49  96 CALM      30.08F
JACKSONVILLE   FAIR      51  49  92 NW7       30.07F
HENDERSON      FAIR      50  48  93 CALM      30.06S
6HR MIN TEMP:  50; 6HR MAX TEMP:  59;

CENTER         CLOUDY    54  50  85 NW9G20    30.04S
6HR MIN TEMP:  54; 6HR MAX TEMP:  67;

NACOGDOCHES      N/A     54  48  80 NW14      30.05S
6HR MIN TEMP:  54; 6HR MAX TEMP:  6


USA.gov is the U.S. government's official web portal to all federal, state and local government web resources and services.